User: anonymous   Login
Location: Ash Swamp
(41.5170°N, 74.6157°W)
Time: 10:54:03
(UTC+00:00)
Language:

Cosmos 1842 Rocket - Orbit

View from above orbital plane
View from above orbital plane
View from above satellite
View from above satellite

Ground track
Ground track

The orbit data is extracted from the following two-line orbital elements,

1 17912U 87038B   20270.73630645  .00000067  00000-0  53048-5 0  9999
2 17912  82.5055   6.6497 0018837 244.9229 115.0031 14.83047472805215
Epoch (UTC): 26 September 2020 17:40:16
Eccentricity: 0.0018837
inclination: 82.5055°
perigee height: 606 km
apogee height: 633 km
right ascension of ascending node: 6.6497°
argument of perigee: 244.9229°
revolutions per day: 14.83047472
mean anomaly at epoch: 115.0031°
orbit number at epoch: 80521

The dashed part of the orbit path shows where the satellite is in the earth's shadow,  

DLR